When you browse on this site, cookies collect data to enhance your experience and personalize the content and advertising you see.
Visit our Privacy Policy to learn more. By continuing to use the site, you agree to this use of cookies and data.
  • In Latvia
  • List of Countries
  • For 7 days
  • Water Temperature
  • Weather Map
  • Weather Widgets
  • user-avatar
    Login

    Hourly Weather Tirana

    Today, 22 September, Sunday

    Time Temperature Precipitation Wind Pressure Humidity
    00:00 +19°C° 0 mm 1 mps 758 mmHg 49%
    01:00 +18°C° 0 mm 1 mps 758 mmHg 49%
    02:00 +18°C° 0 mm 1 mps 758 mmHg 49%
    03:00 +18°C° 0 mm 1 mps 758 mmHg 50%
    04:00 +18°C° 0 mm 1 mps 758 mmHg 50%
    05:00 +19°C° 0 mm 1 mps 758 mmHg 50%
    06:00 +20°C° 0 mm 1 mps 757 mmHg 49%
    07:00 +21°C° 0 mm 1 mps 757 mmHg 49%
    08:00 +23°C° 0 mm 1 mps 758 mmHg 45%
    09:00 +25°C° 0 mm 1 mps 758 mmHg 41%
    10:00 +27°C° 0 mm 1 mps 758 mmHg 37%
    11:00 +27°C° 0 mm 2 mps 757 mmHg 37%
    12:00 +28°C° 0 mm 2 mps 757 mmHg 37%
    13:00 +28°C° 0 mm 2 mps 756 mmHg 37%
    14:00 +28°C° 0 mm 2 mps 756 mmHg 40%
    15:00 +27°C° 0 mm 2 mps 756 mmHg 43%
    16:00 +26°C° 0 mm 2 mps 755 mmHg 46%
    17:00 +25°C° 0 mm 2 mps 756 mmHg 52%
    18:00 +23°C° 0 mm 1 mps 756 mmHg 58%
    19:00 +21°C° 0 mm 1 mps 756 mmHg 64%
    20:00 +21°C° 0 mm 1 mps 756 mmHg 64%
    21:00 +20°C° 0 mm 2 mps 756 mmHg 65%
    22:00 +19°C° 0 mm 2 mps 756 mmHg 66%
    23:00 +19°C° 0 mm 2 mps 756 mmHg 65%

    Tomorrow, 23 September, Monday

    Time Temperature Precipitation Wind Pressure Humidity
    00:00 +19°C° 0 mm 2 mps 756 mmHg 65%
    01:00 +19°C° 0 mm 2 mps 756 mmHg 65%
    02:00 +19°C° 0 mm 2 mps 755 mmHg 64%
    03:00 +19°C° 0 mm 3 mps 755 mmHg 63%
    04:00 +19°C° 0 mm 3 mps 755 mmHg 62%
    05:00 +20°C° 0 mm 3 mps 754 mmHg 57%
    06:00 +21°C° 0 mm 3 mps 754 mmHg 53%
    07:00 +22°C° 0 mm 3 mps 754 mmHg 48%
    08:00 +24°C° 0 mm 3 mps 754 mmHg 46%
    09:00 +25°C° 0 mm 3 mps 754 mmHg 43%
    10:00 +26°C° 0 mm 3 mps 754 mmHg 41%
    11:00 +26°C° 0.3 mm 4 mps 754 mmHg 46%
    12:00 +25°C° 0.3 mm 4 mps 753 mmHg 50%
    13:00 +25°C° 0.3 mm 5 mps 753 mmHg 55%
    14:00 +25°C° 0.5 mm 4 mps 753 mmHg 55%
    15:00 +25°C° 0.5 mm 4 mps 752 mmHg 54%
    16:00 +25°C° 0.5 mm 4 mps 752 mmHg 54%
    17:00 +23°C° 0.2 mm 4 mps 752 mmHg 56%
    18:00 +22°C° 0.2 mm 4 mps 752 mmHg 59%
    19:00 +22°C° 0.2 mm 3 mps 752 mmHg 62%
    20:00 +21°C° 0.5 mm 3 mps 752 mmHg 64%
    21:00 +21°C° 0.5 mm 3 mps 751 mmHg 65%
    22:00 +21°C° 0.5 mm 3 mps 751 mmHg 67%
    23:00 +21°C° 1.7 mm 3 mps 751 mmHg 71%

    Day after tomorrow, 24 September, Tuesday

    Time Temperature Precipitation Wind Pressure Humidity
    00:00 +21°C° 1.7 mm 4 mps 750 mmHg 74%
    01:00 +20°C° 1.7 mm 4 mps 750 mmHg 78%
    02:00 +20°C° 1.1 mm 4 mps 750 mmHg 78%
    03:00 +20°C° 1.1 mm 4 mps 749 mmHg 79%
    04:00 +20°C° 1.1 mm 4 mps 749 mmHg 79%
    05:00 +21°C° 0.7 mm 4 mps 749 mmHg 79%
    06:00 +21°C° 0.7 mm 4 mps 749 mmHg 79%
    07:00 +22°C° 0.7 mm 4 mps 749 mmHg 79%
    08:00 +23°C° 0.7 mm 5 mps 749 mmHg 75%
    09:00 +25°C° 0.7 mm 5 mps 749 mmHg 71%
    10:00 +26°C° 0.7 mm 5 mps 749 mmHg 67%
    11:00 +26°C° 0.4 mm 6 mps 749 mmHg 62%
    12:00 +26°C° 0.4 mm 7 mps 749 mmHg 57%
    13:00 +27°C° 0.4 mm 7 mps 749 mmHg 52%
    14:00 +26°C° 0.3 mm 7 mps 749 mmHg 53%
    15:00 +26°C° 0.3 mm 6 mps 748 mmHg 55%
    16:00 +24°C° 0.3 mm 6 mps 748 mmHg 57%
    17:00 +23°C° 0.1 mm 5 mps 749 mmHg 67%
    18:00 +21°C° 0.1 mm 4 mps 749 mmHg 77%
    19:00 +20°C° 0.1 mm 3 mps 749 mmHg 86%
    20:00 +19°C° 0 mm 2 mps 749 mmHg 87%
    21:00 +19°C° 0 mm 2 mps 750 mmHg 88%
    22:00 +20°C° 0 mm 1 mps 750 mmHg 89%
    23:00 +19°C° 0 mm 1 mps 750 mmHg 89%

    25 September, Wednesday

    Time Temperature Precipitation Wind Pressure Humidity
    00:00 +19°C° 0 mm 1 mps 750 mmHg 89%
    01:00 +19°C° 0 mm 1 mps 750 mmHg 89%
    02:00 +19°C° 0 mm 1 mps 750 mmHg 89%
    03:00 +19°C° 0 mm 1 mps 750 mmHg 89%
    04:00 +18°C° 0 mm 1 mps 750 mmHg 89%
    05:00 +19°C° 0 mm 1 mps 750 mmHg 86%
    06:00 +20°C° 0 mm 1 mps 750 mmHg 82%
    07:00 +20°C° 0 mm 1 mps 750 mmHg 79%
    08:00 +22°C° 0 mm 1 mps 750 mmHg 73%
    09:00 +23°C° 0 mm 2 mps 750 mmHg 66%
    10:00 +25°C° 0 mm 2 mps 750 mmHg 60%
    11:00 +25°C° 0 mm 2 mps 750 mmHg 58%
    12:00 +26°C° 0 mm 2 mps 750 mmHg 55%
    13:00 +26°C° 0 mm 3 mps 750 mmHg 53%
    14:00 +26°C° 0 mm 2 mps 750 mmHg 54%
    15:00 +25°C° 0 mm 2 mps 750 mmHg 56%
    16:00 +25°C° 0 mm 1 mps 750 mmHg 57%
    17:00 +24°C° 0 mm 1 mps 750 mmHg 62%
    18:00 +22°C° 0 mm 1 mps 750 mmHg 67%
    19:00 +20°C° 0 mm 2 mps 751 mmHg 72%
    20:00 +21°C° 0 mm 1 mps 751 mmHg 72%
    21:00 +21°C° 0 mm 1 mps 751 mmHg 71%
    22:00 +21°C° 0 mm 1 mps 751 mmHg 71%
    23:00 +21°C° 0 mm 1 mps 751 mmHg 70%

    26 September, Thursday

    Time Temperature Precipitation Wind Pressure Humidity
    00:00 +20°C° 0 mm 2 mps 751 mmHg 69%
    01:00 +20°C° 0 mm 2 mps 751 mmHg 68%
    02:00 +20°C° 0.1 mm 2 mps 751 mmHg 66%
    03:00 +20°C° 0.1 mm 3 mps 751 mmHg 65%
    04:00 +21°C° 0.1 mm 3 mps 750 mmHg 64%
    05:00 +21°C° 0.2 mm 3 mps 751 mmHg 66%
    06:00 +20°C° 0.2 mm 3 mps 751 mmHg 68%
    07:00 +20°C° 0.2 mm 3 mps 751 mmHg 70%
    08:00 +22°C° 0.1 mm 3 mps 751 mmHg 65%
    09:00 +25°C° 0.1 mm 3 mps 752 mmHg 61%
    10:00 +26°C° 0.1 mm 3 mps 752 mmHg 56%
    11:00 +26°C° 0.1 mm 3 mps 752 mmHg 55%
    12:00 +27°C° 0.1 mm 3 mps 752 mmHg 54%
    13:00 +27°C° 0.1 mm 3 mps 752 mmHg 53%
    14:00 +27°C° 0 mm 3 mps 752 mmHg 53%
    15:00 +27°C° 0 mm 2 mps 751 mmHg 54%
    16:00 +26°C° 0 mm 2 mps 751 mmHg 54%
    17:00 +25°C° 0 mm 1 mps 752 mmHg 61%
    18:00 +23°C° 0 mm 1 mps 752 mmHg 67%
    19:00 +22°C° 0 mm 1 mps 752 mmHg 74%
    20:00 +22°C° 0 mm 1 mps 753 mmHg 75%
    21:00 +21°C° 0 mm 1 mps 753 mmHg 76%
    22:00 +21°C° 0 mm 1 mps 753 mmHg 77%
    23:00 +21°C° 0 mm 1 mps 753 mmHg 77%

    27 September, Friday

    Time Temperature Precipitation Wind Pressure Humidity
    00:00 +21°C° 0 mm 1 mps 753 mmHg 77%
    01:00 +19°C° 0 mm 2 mps 753 mmHg 78%
    02:00 +19°C° 0 mm 2 mps 754 mmHg 78%
    03:00 +19°C° 0 mm 2 mps 754 mmHg 78%
    04:00 +19°C° 0 mm 2 mps 754 mmHg 78%
    05:00 +19°C° 0 mm 2 mps 754 mmHg 75%
    06:00 +20°C° 0 mm 2 mps 754 mmHg 72%
    07:00 +21°C° 0 mm 2 mps 754 mmHg 69%
    08:00 +23°C° 0 mm 2 mps 754 mmHg 63%
    09:00 +25°C° 0 mm 2 mps 754 mmHg 57%
    10:00 +27°C° 0 mm 3 mps 755 mmHg 52%
    11:00 +28°C° 0 mm 3 mps 754 mmHg 49%
    12:00 +28°C° 0 mm 4 mps 754 mmHg 46%
    13:00 +29°C° 0 mm 4 mps 754 mmHg 44%
    14:00 +28°C° 0 mm 4 mps 754 mmHg 47%
    15:00 +27°C° 0 mm 5 mps 753 mmHg 50%
    16:00 +26°C° 0 mm 5 mps 753 mmHg 54%
    17:00 +25°C° 0 mm 4 mps 754 mmHg 62%
    18:00 +22°C° 0 mm 3 mps 754 mmHg 70%
    19:00 +21°C° 0 mm 2 mps 754 mmHg 79%
    20:00 +20°C° 0 mm 2 mps 754 mmHg 78%
    21:00 +21°C° 0 mm 1 mps 755 mmHg 78%
    22:00 +21°C° 0 mm 1 mps 755 mmHg 78%
    23:00 +21°C° 0 mm 1 mps 755 mmHg 78%
    Show more